Flag for Costa Rica Weather past 2 weeks in Alajuela, Costa Rica

Now
82 °F

Partly sunny.


Feels Like: 83 °F
Forecast: 69 / 80 °F
Wind: 8 mph from East

Location: Juan Santamaria

Current Time: Jul 29, 2015 at 12:56:55 PM

Latest Report: Jul 29, 2015 at 12:00 PM


Visibility: N/A

Pressure: 29.98 "Hg (26.90 "Hg at 955m altitude)

Humidity: 51%

Dew point: 63 °F

Location of AlajuelaLocation

Historic Weather in Alajuela — Graph

°F

Alajuela temperature yesterday

Maximum temperature yesterday: 82 °F (at 11:00 AM)
Minimum temperature yesterday: 70 °F (at 2:00 AM)
Average temperature yesterday: 75 °F

Past Weeks' High & Low Weather Summary

 TemperatureHumidityPressure
High86 °F (Jul 22, 1:00 PM)100% (Jul 18, 5:00 AM)30.12 "Hg (Jul 18, 5:00 AM)
Low61 °F (Jul 21, 5:00 AM)35% (Jul 15, 1:00 PM)26.71 "Hg (Jul 17, 2:00 PM)
Average74 °F71%30.00 "Hg
* Reported Jul 14 11:00 AM — Jul 29 11:00 AM, Alajuela, Weather by CustomWeather, © 2015

Note: Actual official high and low records may vary slightly from our data, if they occured in-between our weather recording intervals... More about our weather records

Advertising

Alajuela weather history for previous 24 hours

 ConditionsComfort  
Time TempWeatherWind HumidityBarometerVisibility
11:00 AM
Wed, Jul 29
84 °FPartly sunny.8 mph45%29.99 "HgN/A
10:00 AM82 °FSunny.9 mph48%29.99 "Hg10 mi
9:00 AM79 °FSunny.9 mph58%30.00 "Hg10 mi
8:00 AM79 °FSunny.9 mph58%30.00 "Hg10 mi
7:00 AM73 °FSunny.7 mph65%29.99 "Hg10 mi
6:00 AM72 °FPartly sunny.7 mph69%29.98 "HgN/A
5:00 AM70 °FClear.3 mph78%29.95 "Hg10 mi
4:00 AM70 °FClear.10 mph73%29.94 "Hg10 mi
3:00 AM70 °FClear.8 mph73%29.95 "Hg10 mi
2:00 AM70 °FClear.16 mph73%29.94 "Hg10 mi
1:00 AM70 °FClear.8 mph73%29.96 "Hg10 mi
12:00 AM72 °FClear.15 mph69%30.00 "Hg10 mi
11:00 PM
Tue, Jul 28
72 °FClear.12 mph69%30.00 "Hg10 mi
9:00 PM72 °FClear.9 mph73%29.99 "Hg10 mi
8:00 PM72 °FPassing clouds.9 mph73%29.98 "HgN/A
7:00 PM72 °FPassing clouds.9 mph73%29.97 "HgN/A
6:00 PM73 °FPartly cloudy.6 mph69%29.96 "HgN/A
5:00 PM75 °FPartly sunny.9 mph65%29.94 "HgN/A
4:00 PM77 °FPartly sunny.8 mph61%29.92 "HgN/A
3:00 PM77 °FPartly sunny.13 mph61%29.90 "HgN/A
2:00 PM77 °FWarm.N/A69%29.92 "HgN/A
1:00 PM81 °FBroken clouds.12 mph54%29.94 "HgN/A
12:00 PM82 °FBroken clouds.14 mph48%29.95 "HgN/A
Weather by CustomWeather, © 2015

See weather overviewHow to use our weather pages